Weather History for CYHK - March, 2014

Change the Weather History Date:

Monday, March 10, 2014

  Actual Average Record
Temperature  
Mean Temperature -33 °F -  
Max Temperature -27 °F -16 °F 5 °F (1999)
Min Temperature -39 °F -27 °F -45 °F (2011)
Degree Days  
Heating Degree Days 98    
Moisture  
Dew Point -42 °F    
Average Humidity 66    
Maximum Humidity 68    
Minimum Humidity 45    
Precipitation  
Precipitation 0.00 in - - ()
Sea Level Pressure  
Sea Level Pressure 29.90 in    
Wind  
Wind Speed 13 mph ()    
Max Wind Speed 21 mph    
Max Gust Speed 23 mph    
Visibility 5.3 miles    
Events Snow    
Averages and records for this station are not official NWS values.
T = Trace of Precipitation, MM = Missing Value Source: Averaged Metar Reports

Daily Weather History Graph

Daily Weather History Graph

Search for Another Location

Airport or City:

Trip Planner

Search our weather history database for the weather conditions in past years. The results will help you decide how hot, cold, wet, or windy it might be!

Date:

Astronomy

Mar. 10, 2014 Rise Set
Actual Time 8:05 AM CDT 7:03 PM CDT
Civil Twilight 7:08 AM CDT 8:00 PM CDT
Nautical Twilight 6:01 AM CDT 9:08 PM CDT
Astronomical Twilight 4:45 AM CDT 10:25 PM CDT
Moon 11:27 AM CDT (3/10) 6:41 AM CDT (3/10)
Length of Visible Light 12h 51m
Length of Day
10h 57m
Waxing Gibbous, 70% of the Moon is Illuminated
Mar 10
Waxing Gibbous
Mar 16
Full
Mar 23
Last Quarter
Mar 30
New
Apr 7
First Quarter

Hourly Weather History & Observations

Time (CDT) Temp. Windchill Dew Point Humidity Pressure Visibility Wind Dir Wind Speed Gust Speed Precip Events Conditions
12:00 AM -38.2 °F -68.3 °F -47.2 °F 61% 29.83 in 6.0 mi NNW 15.0 mph - N/A   Haze
12:20 AM -38.2 °F -68.3 °F -45.4 °F 67% 29.83 in 5.0 mi NNW 15.0 mph - N/A   Haze
12:53 AM -38.2 °F -63.7 °F -45.4 °F 67% 29.83 in 3.0 mi NNW 10.4 mph - N/A Snow Light Snow
12:59 AM -36.4 °F -65.0 °F -45.4 °F 61% 29.83 in 6.0 mi NNW 13.8 mph - N/A Snow Light Snow
1:00 AM -39 °F - -46 °F 48% 29.83 in - NW 9.2 mph - -  
1:00 AM -36.4 °F -65.0 °F -45.4 °F 61% 29.83 in 6.0 mi NNW 13.8 mph - N/A Snow Light Snow
1:06 AM -36.4 °F -66.0 °F -45.4 °F 61% 29.83 in 9.0 mi NNW 15.0 mph - N/A   Clear
1:47 AM -38.2 °F -63.7 °F -47.2 °F 61% 29.85 in 5.0 mi NW 10.4 mph 17.3 mph N/A   Haze
1:51 AM -40.0 °F -65.9 °F -47.2 °F 67% 29.85 in 2.5 mi NW 10.4 mph - N/A   Haze
1:53 AM -40.0 °F -65.9 °F -47.2 °F 67% 29.85 in 2.2 mi NW 10.4 mph - N/A   Haze
1:58 AM -40.0 °F -67.2 °F -47.2 °F 67% 29.85 in 2.5 mi NW 11.5 mph - N/A   Haze
2:00 AM -40.0 °F -65.9 °F -47.2 °F 67% 29.85 in 2.5 mi NW 10.4 mph - N/A   Haze
2:01 AM -38.2 °F -63.7 °F -47.2 °F 61% 29.85 in 3.0 mi NW 10.4 mph - N/A   Haze
2:34 AM -38.2 °F -67.3 °F -45.4 °F 67% 29.85 in 6.0 mi NNW 13.8 mph - N/A   Haze
2:40 AM -38.2 °F -68.3 °F -45.4 °F 67% 29.85 in 5.0 mi NNW 15.0 mph - N/A   Haze
3:00 AM -38.2 °F -66.2 °F -45.4 °F 67% 29.85 in 5.0 mi NNW 12.7 mph - N/A   Haze
3:02 AM -38.2 °F -66.2 °F -45.4 °F 67% 29.85 in 5.0 mi NNW 12.7 mph - N/A Snow Light Snow
3:04 AM -38.2 °F -66.2 °F -45.4 °F 67% 29.85 in 6.0 mi NNW 12.7 mph - N/A Snow Light Snow
3:17 AM -38.2 °F -70.1 °F -45.4 °F 67% 29.85 in 5.0 mi NNW 17.3 mph - N/A Snow Light Snow
3:18 AM -38.2 °F -70.1 °F -45.4 °F 67% 29.85 in 5.0 mi NNW 17.3 mph - N/A   Haze
3:19 AM -38.2 °F -70.1 °F -45.4 °F 67% 29.85 in 5.0 mi NNW 17.3 mph - N/A Snow Light Snow
3:47 AM -38.2 °F -71.8 °F -45.4 °F 67% 29.85 in 3.0 mi NW 19.6 mph - N/A   Haze
4:00 AM -38.2 °F -70.1 °F -45.4 °F 67% 29.85 in 3.0 mi NW 17.3 mph - N/A   Haze
4:13 AM -38.2 °F -70.1 °F -45.4 °F 67% 29.86 in 2.5 mi NW 17.3 mph - N/A   Haze
4:54 AM -38.2 °F -70.1 °F -47.2 °F 61% 29.86 in 3.0 mi NW 17.3 mph - N/A   Haze
5:00 AM -38.2 °F -69.2 °F -47.2 °F 61% 29.86 in 4.0 mi NNW 16.1 mph - N/A   Haze
5:09 AM -38.2 °F -71.0 °F -45.4 °F 67% 29.86 in 6.0 mi NNW 18.4 mph - N/A   Haze
6:00 AM -36.4 °F -69.4 °F -43.6 °F 67% 29.87 in 7.0 mi NNW 19.6 mph - N/A   Clear
6:08 AM -36.4 °F -67.8 °F -45.4 °F 61% 29.88 in 5.0 mi NNW 17.3 mph 23.0 mph N/A   Haze
6:18 AM -36.4 °F -70.2 °F -45.4 °F 61% 29.88 in 6.0 mi NNW 20.7 mph - N/A   Haze
6:31 AM -38.2 °F -69.2 °F -45.4 °F 67% 29.88 in 5.0 mi NNW 16.1 mph - N/A   Haze
7:00 AM -38 °F - -46 °F 45% 29.88 in - NW 10.4 mph - -  
7:00 AM -38.2 °F -67.3 °F -45.4 °F 67% 29.88 in 4.0 mi NW 13.8 mph - N/A   Haze
7:20 AM -38.2 °F -70.1 °F -45.4 °F 67% 29.88 in 6.0 mi NW 17.3 mph - N/A   Haze
7:38 AM -36.4 °F -66.9 °F -45.4 °F 61% 29.89 in 5.0 mi NW 16.1 mph - N/A   Haze
7:51 AM -36.4 °F -70.2 °F -43.6 °F 67% 29.88 in 2.5 mi NW 20.7 mph - N/A   Haze
8:00 AM -36.4 °F -70.2 °F -43.6 °F 67% 29.89 in 2.5 mi NW 20.7 mph - N/A   Haze
8:28 AM -36.4 °F -68.6 °F -43.6 °F 67% 29.89 in 3.0 mi NW 18.4 mph - N/A   Haze
8:31 AM -36.4 °F -66.0 °F -43.6 °F 67% 29.89 in 3.0 mi NW 15.0 mph 20.7 mph N/A Snow Light Snow
8:43 AM -36.4 °F -69.4 °F -43.6 °F 67% 29.88 in 3.0 mi NW 19.6 mph - N/A   Haze
9:00 AM -36.4 °F -70.2 °F -43.6 °F 67% 29.88 in 3.0 mi NW 20.7 mph - N/A   Haze
9:35 AM -36.4 °F -66.9 °F -45.4 °F 61% 29.89 in 6.0 mi NW 16.1 mph - N/A   Haze
9:56 AM -36.4 °F -66.0 °F -43.6 °F 67% 29.89 in 5.0 mi NW 15.0 mph - N/A   Haze
10:00 AM -36.4 °F -65.0 °F -43.6 °F 67% 29.89 in 4.0 mi NW 13.8 mph - N/A   Haze
10:26 AM -36.4 °F -65.0 °F -45.4 °F 61% 29.89 in 2.5 mi WNW 13.8 mph - N/A   Haze
10:30 AM -36.4 °F -65.0 °F -45.4 °F 61% 29.89 in 2.2 mi WNW 13.8 mph - N/A   Haze
10:46 AM -36.4 °F -66.0 °F -43.6 °F 67% 29.89 in 2.5 mi WNW 15.0 mph - N/A   Haze
10:49 AM -36.4 °F -66.0 °F -43.6 °F 67% 29.89 in 3.0 mi WNW 15.0 mph - N/A   Haze
11:00 AM -36.4 °F -65.0 °F -43.6 °F 67% 29.89 in 3.0 mi WNW 13.8 mph - N/A   Haze
11:23 AM -36.4 °F -62.7 °F -43.6 °F 67% 29.90 in 6.0 mi West 11.5 mph - N/A   Haze
12:00 PM -34.6 °F -59.2 °F -41.8 °F 68% 29.91 in 9.0 mi WNW 10.4 mph - N/A   Clear
1:00 PM -34 °F - -42 °F 48% 29.90 in - West 10.4 mph - -  
1:00 PM -34.6 °F -61.6 °F -41.8 °F 68% 29.91 in 9.0 mi West 12.7 mph - N/A   Clear
2:00 PM -31.0 °F -56.0 °F -38.2 °F 68% 29.91 in 9.0 mi West 11.5 mph - N/A   Clear
2:48 PM -32.8 °F -60.4 °F -40.0 °F 68% 29.92 in 9.0 mi West 13.8 mph - N/A   Mostly Cloudy
3:00 PM -32.8 °F -59.3 °F -40.0 °F 68% 29.92 in 9.0 mi West 12.7 mph - N/A   Mostly Cloudy
3:55 PM -29.2 °F -54.8 °F -36.4 °F 68% 29.94 in 9.0 mi West 12.7 mph - N/A   Scattered Clouds
4:00 PM -29.2 °F -56.8 °F -36.4 °F 68% 29.94 in 9.0 mi West 15.0 mph - N/A   Scattered Clouds
5:00 PM -29.2 °F -55.8 °F -36.4 °F 68% 29.93 in 9.0 mi West 13.8 mph - N/A   Clear
5:29 PM -29.2 °F -54.8 °F -36.4 °F 68% 29.94 in 5.0 mi West 12.7 mph - N/A   Haze
5:41 PM -29.2 °F -56.8 °F -36.4 °F 68% 29.94 in 6.0 mi West 15.0 mph - N/A   Haze
6:00 PM -29.2 °F -53.7 °F -36.4 °F 68% 29.94 in 9.0 mi West 11.5 mph 17.3 mph N/A   Clear
6:43 PM -29.2 °F -52.5 °F -36.4 °F 68% 29.95 in 5.0 mi WSW 10.4 mph - N/A   Haze
6:46 PM -29.2 °F -52.5 °F -36.4 °F 68% 29.95 in 6.0 mi WSW 10.4 mph - N/A   Haze
7:00 PM -29 °F - -36 °F 52% 29.94 in - WSW 10.4 mph - -  
7:37 PM -29.2 °F -54.8 °F -36.4 °F 68% 29.95 in 4.0 mi West 12.7 mph - N/A   Haze
7:38 PM -29.2 °F -54.8 °F -36.4 °F 68% 29.95 in 4.0 mi West 12.7 mph - N/A Snow Light Snow
7:45 PM -29.2 °F -51.2 °F -36.4 °F 68% 29.95 in 2.5 mi West 9.2 mph - N/A Snow Light Snow
7:52 PM -29.2 °F -49.7 °F -36.4 °F 68% 29.95 in 2.0 mi WSW 8.1 mph - N/A Snow Light Snow
7:57 PM -29.2 °F -51.2 °F -36.4 °F 68% 29.95 in 2.5 mi WSW 9.2 mph - N/A Snow Light Snow
7:59 PM -29.2 °F -52.5 °F -36.4 °F 68% 29.95 in 3.0 mi WSW 10.4 mph - N/A Snow Light Snow
8:00 PM -29.2 °F -53.7 °F -36.4 °F 68% 29.95 in 3.0 mi WSW 11.5 mph - N/A Snow Light Snow
8:04 PM -29.2 °F -53.7 °F -36.4 °F 68% 29.94 in 6.0 mi WSW 11.5 mph - N/A Snow Light Snow
8:13 PM -29.2 °F -51.2 °F -36.4 °F 68% 29.95 in 5.0 mi West 9.2 mph - N/A Snow Light Snow
8:21 PM -29.2 °F -53.7 °F -36.4 °F 68% 29.95 in 6.0 mi West 11.5 mph - N/A Snow Light Snow
8:32 PM -29.2 °F -52.5 °F -36.4 °F 68% 29.95 in 9.0 mi West 10.4 mph - N/A   Partly Cloudy
8:36 PM -29.2 °F -52.5 °F -36.4 °F 68% 29.95 in 9.0 mi West 10.4 mph - N/A Snow Light Snow
9:00 PM -29.2 °F -54.8 °F -36.4 °F 68% 29.94 in 9.0 mi WSW 12.7 mph - N/A Snow Light Snow
9:03 PM -29.2 °F -52.5 °F -36.4 °F 68% 29.95 in 9.0 mi WSW 10.4 mph - N/A   Clear
10:00 PM -31.0 °F -54.7 °F -38.2 °F 68% 29.94 in 8.0 mi WSW 10.4 mph - N/A   Clear
11:00 PM -31.0 °F -56.0 °F -38.2 °F 68% 29.94 in 9.0 mi West 11.5 mph - N/A   Clear
11:03 PM -31.0 °F -54.7 °F -38.2 °F 68% 29.94 in 8.0 mi West 10.4 mph - N/A Snow Light Snow
11:17 PM -31.0 °F -54.7 °F -38.2 °F 68% 29.94 in 8.0 mi West 10.4 mph - N/A   Clear
11:19 PM -31.0 °F -54.7 °F -38.2 °F 68% 29.94 in 8.0 mi WSW 10.4 mph - N/A Snow Light Snow
11:30 PM -32.8 °F -57.0 °F -40.0 °F 68% 29.94 in 7.0 mi WSW 10.4 mph - N/A   Clear